Zurück zum Katalog

FREGAT DEB

LostUNKNOWN
NORAD 46003·DEBRIS·🇷🇺 Russia

Gestartet Jul 18, 2011 von Baikonur Cosmodrome

Loading…

Nächste Überflüge (nächste 24 Stunden)

TLE

VeraltetSource: Space-Track

Epoche: Mar 31, 2022, 07:31 UTC

1 46003U 11037HE  22090.31319888  .00874678  00000-0  52057+0 0  9997
2 46003  51.0371 135.6602 1634310 312.6325  34.7528 11.49062609 69333

Verfolge FREGAT DEB in Echtzeit mit AllMySat

Download on the App Store